Date String (YYYY-MM-DD hh:mm:ss) UTC,Instrument flags,absolute air pressure of the measurement (hPa),sample flow rate (lpm),inlet stack bypass flow (lpm),air temperature of the measurement (°C),ambient temperature measured by the external sensor (°C),aerosol sample conditioner tube jacket temperature (°C),OPC LED temperature (°C),internal box temperature (°C),relative humidity of the measurement (%),span deviation,mass concentration of particles derived from Lorenz-Mie calculation of OPC scattering (μg/m³),mass concentration of particles derived from Lorenz-Mie calculation of OPC scattering (μg/m³),mass concentration of particles derived from Lorenz-Mie calculation of OPC scattering (μg/m³)
DateTimeUTC,F1_M11,P_M11,Q1_M11,Q2_M11,T1_M11,T2_M11,T3_M11,T4_M11,T5_M11,U1_M11,ZSPAN_M11,X0_M11,X2_M11,X1_M11
2023-10-24 17:00:00,SystemResetWarning,0826.4,4.99,000.00,029.2,027.9,000.0,037.6,030.9,18.7,0000.0,0024.05,0006.29,0003.91
2023-10-24 17:01:00,SystemResetWarning,0826.3,5.02,000.00,029.3,027.9,000.0,037.6,030.9,18.7,0000.0,0023.36,0006.33,0003.89
2023-10-24 17:02:00,SystemResetWarning,0826.3,5.01,000.00,029.3,027.9,000.0,037.6,030.9,18.6,0000.0,0023.80,0006.31,0003.89
2023-10-24 17:03:00,SystemResetWarning,0826.3,4.98,000.00,029.3,027.9,000.0,037.6,030.9,18.6,0000.0,0023.22,0006.20,0003.88
2023-10-24 17:04:00,SystemResetWarning,0826.2,5.00,000.00,029.3,027.9,000.0,037.6,030.9,18.6,0000.0,0023.37,0006.17,0003.88
2023-10-24 17:05:00,SystemResetWarning,0826.3,5.00,000.00,029.3,027.9,000.0,037.6,031.0,18.6,0000.0,0023.78,0006.17,0003.87
2023-10-24 17:06:00,SystemResetWarning,0826.3,5.00,000.00,029.3,028.0,000.0,037.7,030.9,18.6,0000.0,0023.00,0006.16,0003.88
2023-10-24 17:07:00,SystemResetWarning,0826.2,5.00,000.00,029.3,028.0,000.0,037.7,031.0,18.7,0000.0,0022.57,0006.16,0003.90
2023-10-24 17:08:00,SystemResetWarning,0826.2,5.00,000.00,029.3,028.0,000.0,037.7,031.0,18.7,0000.0,0022.45,0006.14,0003.90
2023-10-24 17:09:00,SystemResetWarning,0826.3,4.99,000.00,029.3,028.0,000.0,037.7,031.0,18.7,0000.0,0021.50,0006.16,0003.90
2023-10-24 17:10:00,SystemResetWarning,0826.2,5.00,000.00,029.3,028.0,000.0,037.7,031.0,18.6,0000.0,0020.66,0006.13,0003.90
2023-10-24 17:11:00,SystemResetWarning,0826.3,5.01,000.00,029.3,028.0,000.0,037.7,031.0,18.6,0000.0,0020.68,0006.05,0003.89
2023-10-24 17:12:00,SystemResetWarning,0826.3,5.00,000.00,029.3,028.0,000.0,037.7,031.0,18.6,0000.0,0021.09,0006.03,0003.89
2023-10-24 17:13:00,SystemResetWarning,0826.3,4.98,000.00,029.4,028.0,000.0,037.7,031.0,18.8,0000.0,0020.54,0006.00,0003.90
2023-10-24 17:14:00,SystemResetWarning,0826.3,5.01,000.00,029.4,028.0,000.0,037.7,031.0,19.0,0000.0,0020.95,0006.05,0003.90
2023-10-24 17:15:00,SystemResetWarning,0826.3,5.01,000.00,029.4,028.0,000.0,037.7,031.0,19.2,0000.0,0022.11,0006.13,0003.89
2023-10-24 17:16:00,SystemResetWarning,0826.3,4.98,000.00,029.4,028.0,000.0,037.7,031.0,19.2,0000.0,0021.28,0006.13,0003.90
2023-10-24 17:17:00,SystemResetWarning,0826.2,5.00,000.00,029.4,028.0,000.0,037.7,031.0,19.3,0000.0,0021.51,0006.16,0003.89
2023-10-24 17:18:00,SystemResetWarning,0826.2,5.00,000.00,029.4,028.0,000.0,037.7,031.0,19.3,0000.0,0022.59,0006.14,0003.89
2023-10-24 17:19:00,SystemResetWarning,0826.2,5.01,000.00,029.4,028.0,000.0,037.7,031.0,19.4,0000.0,0022.03,0006.09,0003.90
2023-10-24 17:20:00,SystemResetWarning,0826.3,4.99,000.00,029.4,028.0,000.0,037.8,031.1,19.4,0000.0,0022.62,0006.05,0003.91
2023-10-24 17:21:00,SystemResetWarning,0826.3,4.99,000.00,029.4,028.0,000.0,037.8,031.0,19.5,0000.0,0024.64,0006.09,0003.93
2023-10-24 17:22:00,SystemResetWarning,0826.3,5.00,000.00,029.4,028.0,000.0,037.8,031.1,19.3,0000.0,0025.51,0006.18,0003.95
2023-10-24 17:23:00,SystemResetWarning,0826.3,5.01,000.00,029.4,028.0,000.0,037.8,031.1,19.4,0000.0,0025.04,0006.23,0003.98
2023-10-24 17:24:00,SystemResetWarning,0826.3,5.01,000.00,029.4,028.1,000.0,037.8,031.1,19.4,0000.0,0025.25,0006.26,0004.01
2023-10-24 17:25:00,SystemResetWarning,0826.2,5.01,000.00,029.4,028.1,000.0,037.8,031.1,18.9,0000.0,0025.28,0006.30,0004.02
2023-10-24 17:26:00,SystemResetWarning,0826.2,4.99,000.00,029.4,028.1,000.0,037.8,031.1,18.7,0000.0,0024.66,0006.24,0004.05
2023-10-24 17:27:00,SystemResetWarning,0826.2,4.99,000.00,029.4,028.1,000.0,037.8,031.1,18.7,0000.0,0026.16,0006.25,0004.07
2023-10-24 17:28:00,SystemResetWarning,0826.2,5.00,000.00,029.5,028.1,000.0,037.8,031.1,19.0,0000.0,0027.28,0006.29,0004.10
2023-10-24 17:29:00,SystemResetWarning,0826.2,5.00,000.00,029.5,028.1,000.0,037.8,031.1,19.0,0000.0,0028.20,0006.34,0004.12
2023-10-24 17:30:00,SystemResetWarning,0826.2,5.00,000.00,029.5,028.1,000.0,037.9,031.1,19.0,0000.0,0027.25,0006.38,0004.15
2023-10-24 17:31:00,SystemResetWarning,0826.2,5.01,000.00,029.5,028.2,000.0,037.9,031.1,18.9,0000.0,0027.51,0006.43,0004.18
2023-10-24 17:32:00,SystemResetWarning,0826.2,5.01,000.00,029.5,028.2,000.0,037.9,031.1,18.9,0000.0,0026.43,0006.44,0004.21
2023-10-24 17:33:00,SystemResetWarning,0826.2,5.00,000.00,029.5,027.9,000.0,037.9,031.2,18.9,0000.0,0026.34,0006.39,0004.22
2023-10-24 17:34:00,SystemResetWarning,0826.2,4.98,000.00,029.5,026.1,000.0,037.8,031.0,18.9,0000.0,0026.35,0006.43,0004.23
2023-10-24 17:35:00,SystemResetWarning,0826.2,5.02,000.00,029.4,024.8,000.0,037.8,030.8,19.1,0000.0,0026.24,0006.45,0004.24
2023-10-24 17:36:00,SystemResetWarning,0826.2,5.01,000.00,029.2,024.7,000.0,037.7,030.6,19.3,0000.0,0026.04,0006.44,0004.28
2023-10-24 17:37:00,SystemResetWarning,0826.2,5.00,000.00,029.1,025.0,000.0,037.7,030.3,19.5,0000.0,0025.89,0006.53,0004.30
2023-10-24 17:38:00,SystemResetWarning,0826.2,5.00,000.00,029.0,025.4,000.0,037.7,030.3,19.5,0000.0,0024.48,0006.59,0004.32
2023-10-24 17:39:00,SystemResetWarning,0826.2,5.00,000.00,029.0,025.8,000.0,037.7,030.3,19.7,0000.0,0024.40,0006.61,0004.35
2023-10-24 17:40:00,SystemResetWarning,0826.2,5.01,000.00,028.9,026.1,000.0,037.6,030.4,19.7,0000.0,0023.11,0006.62,0004.38
2023-10-24 17:41:00,SystemResetWarning,0826.2,4.99,000.00,028.9,026.4,000.0,037.6,030.4,19.7,0000.0,0022.88,0006.65,0004.40
2023-10-24 17:42:00,SystemResetWarning,0826.2,5.00,000.00,028.9,026.7,000.0,037.6,030.4,19.8,0000.0,0024.19,0006.70,0004.41
2023-10-24 17:43:00,SystemResetWarning,0826.2,5.00,000.00,028.9,026.9,000.0,037.6,030.5,19.7,0000.0,0024.15,0006.74,0004.43
2023-10-24 17:44:00,SystemResetWarning,0826.2,5.00,000.00,028.9,027.1,000.0,037.5,030.5,19.5,0000.0,0023.48,0006.79,0004.46
2023-10-24 17:45:00,SystemResetWarning,0826.2,5.00,000.00,029.0,027.2,000.0,037.5,030.5,19.4,0000.0,0023.42,0006.75,0004.49
2023-10-24 17:46:00,SystemResetWarning,0826.2,4.99,000.00,029.0,027.3,000.0,037.5,030.6,19.4,0000.0,0023.40,0006.71,0004.51
2023-10-24 17:47:00,SystemResetWarning,0826.2,4.99,000.00,029.0,027.4,000.0,037.5,030.6,19.3,0000.0,0023.56,0006.74,0004.52
2023-10-24 17:48:00,SystemResetWarning,0826.2,5.00,000.00,029.0,027.5,000.0,037.5,030.6,19.2,0000.0,0023.63,0006.70,0004.54
2023-10-24 17:49:00,SystemResetWarning,0826.2,5.00,000.00,029.0,027.6,000.0,037.5,030.6,19.2,0000.0,0023.74,0006.71,0004.55
2023-10-24 17:50:00,SystemResetWarning,0826.2,5.01,000.00,029.0,027.6,000.0,037.5,030.6,19.5,0000.0,0022.33,0006.70,0004.56
2023-10-24 17:51:00,SystemResetWarning,0826.2,5.01,000.00,029.1,027.7,000.0,037.5,030.7,19.3,0000.0,0021.83,0006.74,0004.58
2023-10-24 17:52:00,SystemResetWarning,0826.2,5.00,000.00,029.1,027.7,000.0,037.5,030.7,19.2,0000.0,0022.58,0006.74,0004.61
2023-10-24 17:53:00,SystemResetWarning,0826.1,4.99,000.00,029.1,027.8,000.0,037.5,030.7,19.4,0000.0,0021.14,0006.72,0004.63
2023-10-24 17:54:00,SystemResetWarning,0826.1,4.99,000.00,029.1,027.8,000.0,037.5,030.8,19.4,0000.0,0020.67,0006.72,0004.66
2023-10-24 17:55:00,SystemResetWarning,0826.0,5.01,000.00,029.1,027.9,000.0,037.5,030.8,19.4,0000.0,0023.12,0006.73,0004.67
2023-10-24 17:56:00,SystemResetWarning,0826.0,5.01,000.00,029.2,027.9,000.0,037.5,030.8,19.4,0000.0,0024.06,0006.76,0004.69
2023-10-24 17:57:00,SystemResetWarning,0826.0,5.00,000.00,029.2,027.9,000.0,037.5,030.8,19.4,0000.0,0024.41,0006.79,0004.70
2023-10-24 17:58:00,SystemResetWarning,0826.0,4.99,000.00,029.2,028.0,000.0,037.6,030.8,19.2,0000.0,0025.05,0006.83,0004.71
2023-10-24 17:59:00,SystemResetWarning,0825.9,5.00,000.00,029.2,028.0,000.0,037.6,030.9,19.1,0000.0,0025.28,0006.93,0004.72
